Карточка аэропорта URWW

Внимание!
Информация на этой странице в стадии наполнения.
Если вы не увидели какой-то информации, или заметили неточность - пожалуйста сообщите нам!
Спасибо!
Команда RU-STAFF
Название аэропортаГумрак
Название аэропорта (англ.)Gumrak
Превышение482 ft. (146.9 m.)
Координаты48°46.95', 44°20.736'
Высота перехода3000 ft
Эшелон переходаFL40 (QNH >= 1013); FL50 (QNH 977-1012); FL60 (QNH < 977)
Коды ответчика1020-1027
Зона ОрВДРостов-на-Дону РПИ (URRV)
Данные METARURWW 191110Z 34003MPS 290V030 9999 BKN049CB 36/15 Q1006 R05/010070 TEMPO VRB23MPS 1000 TSRAGR SQ BKN004 BKN020CB
Проноз погоды (TAF)URWW 190757Z 1909/1918 33003G14MPS 9999 SCT020 SCT030CB TEMPO 1909/1918 36008G21MPS -TSRAGR BKN016 BKN030CB
NOTAMshow/hide NOTAM
AWOS   TABLE

Информация о ВПП

ВПП Длина ВПП (м.) Покрытие Курс ВПП Частота ILS
062800Асфальтобетон55111.7
242800Асфальтобетон235110.5

Диспетчерские позиции

Позывной Наименование органа УВД Частота
URWW_GNDВолгоград-Руление119.0
URWW_APPВолгоград-Подход125.3
URWW_TWRВолгоград-Вышка128.0



Спутниковое изображение